Meteo pe oră la Dziergowice

Astăzi, 4 Martie, Joi

Timp Temperatura Precipitaţii Vânt Presiune Umiditate
00:00 +5°C° 0 mm 3 m/s 750 mmHg 75%
01:00 +4°C° 0 mm 3 m/s 749 mmHg 75%
02:00 +4°C° 0 mm 3 m/s 749 mmHg 75%
03:00 +4°C° 0 mm 3 m/s 748 mmHg 75%
04:00 +4°C° 0 mm 3 m/s 748 mmHg 75%
05:00 +4°C° 0 mm 3 m/s 747 mmHg 76%
06:00 +4°C° 0 mm 3 m/s 747 mmHg 77%
07:00 +4°C° 0 mm 3 m/s 747 mmHg 78%
08:00 +5°C° 0 mm 3 m/s 747 mmHg 73%
09:00 +8°C° 0 mm 3 m/s 746 mmHg 68%
10:00 +9°C° 0 mm 3 m/s 746 mmHg 63%
11:00 +10°C° 0 mm 3 m/s 746 mmHg 61%
12:00 +11°C° 0 mm 4 m/s 745 mmHg 59%
13:00 +12°C° 0 mm 4 m/s 745 mmHg 57%
14:00 +11°C° 0.2 mm 4 m/s 744 mmHg 63%
15:00 +11°C° 0.2 mm 3 m/s 744 mmHg 69%
16:00 +10°C° 0.2 mm 3 m/s 743 mmHg 75%
17:00 +10°C° 0.2 mm 3 m/s 743 mmHg 77%
18:00 +9°C° 0.2 mm 3 m/s 742 mmHg 79%
19:00 +9°C° 0.2 mm 2 m/s 742 mmHg 82%
20:00 +8°C° 1.5 mm 3 m/s 742 mmHg 84%
21:00 +7°C° 1.5 mm 3 m/s 742 mmHg 87%
22:00 +7°C° 1.5 mm 3 m/s 742 mmHg 89%
23:00 +5°C° 1.2 mm 4 m/s 742 mmHg 90%

Mâine, 5 Martie, Vineri

Timp Temperatura Precipitaţii Vânt Presiune Umiditate
00:00 +4°C° 1.2 mm 4 m/s 743 mmHg 91%
01:00 +3°C° 1.2 mm 4 m/s 743 mmHg 91%
02:00 +3°C° 0.1 mm 4 m/s 743 mmHg 91%
03:00 +1°C° 0.1 mm 4 m/s 743 mmHg 91%
04:00 +2°C° 0.1 mm 3 m/s 743 mmHg 91%
05:00 0°C° 0.2 mm 4 m/s 744 mmHg 92%
06:00 0°C° 0.2 mm 4 m/s 745 mmHg 92%
07:00 -1°C° 0.2 mm 4 m/s 745 mmHg 93%
08:00 -1°C° 0.2 mm 5 m/s 746 mmHg 85%
09:00 -1°C° 0.2 mm 5 m/s 746 mmHg 78%
10:00 0°C° 0.2 mm 5 m/s 747 mmHg 70%
11:00 0°C° 0 mm 5 m/s 747 mmHg 63%
12:00 +1°C° 0 mm 5 m/s 748 mmHg 56%
13:00 +2°C° 0 mm 5 m/s 748 mmHg 49%
14:00 +1°C° 0 mm 5 m/s 748 mmHg 48%
15:00 +1°C° 0 mm 5 m/s 749 mmHg 48%
16:00 +1°C° 0 mm 5 m/s 749 mmHg 47%
17:00 +1°C° 0 mm 4 m/s 750 mmHg 51%
18:00 +1°C° 0 mm 3 m/s 750 mmHg 56%
19:00 0°C° 0 mm 3 m/s 751 mmHg 60%
20:00 +1°C° 0 mm 2 m/s 752 mmHg 62%
21:00 -1°C° 0 mm 2 m/s 752 mmHg 63%
22:00 -1°C° 0 mm 2 m/s 753 mmHg 65%
23:00 -1°C° 0 mm 2 m/s 753 mmHg 66%

Poimâine, 6 Martie, Sâmbătă

Timp Temperatura Precipitaţii Vânt Presiune Umiditate
00:00 -1°C° 0 mm 2 m/s 753 mmHg 67%
01:00 -1°C° 0 mm 2 m/s 754 mmHg 69%
02:00 -1°C° 0 mm 2 m/s 754 mmHg 69%
03:00 -2°C° 0 mm 3 m/s 754 mmHg 70%
04:00 -2°C° 0 mm 3 m/s 755 mmHg 70%
05:00 -2°C° 0 mm 3 m/s 755 mmHg 71%
06:00 -2°C° 0 mm 3 m/s 755 mmHg 72%
07:00 -2°C° 0 mm 3 m/s 756 mmHg 72%
08:00 -1°C° 0 mm 3 m/s 756 mmHg 68%
09:00 -1°C° 0 mm 3 m/s 756 mmHg 64%
10:00 0°C° 0 mm 3 m/s 757 mmHg 60%
11:00 +1°C° 0 mm 3 m/s 756 mmHg 55%
12:00 +1°C° 0 mm 3 m/s 756 mmHg 50%
13:00 +2°C° 0 mm 3 m/s 756 mmHg 45%
14:00 +2°C° 0 mm 3 m/s 756 mmHg 45%
15:00 +2°C° 0 mm 3 m/s 756 mmHg 45%
16:00 +2°C° 0 mm 3 m/s 756 mmHg 46%
17:00 +2°C° 0 mm 2 m/s 756 mmHg 50%
18:00 +1°C° 0 mm 2 m/s 756 mmHg 53%
19:00 +1°C° 0 mm 1 m/s 756 mmHg 57%
20:00 +1°C° 0 mm 1 m/s 756 mmHg 58%
21:00 -1°C° 0 mm 2 m/s 756 mmHg 58%
22:00 -1°C° 0 mm 2 m/s 756 mmHg 59%
23:00 -1°C° 0 mm 2 m/s 755 mmHg 59%

7 Martie, Duminică

Timp Temperatura Precipitaţii Vânt Presiune Umiditate
00:00 -1°C° 0 mm 3 m/s 755 mmHg 59%
01:00 -2°C° 0 mm 3 m/s 755 mmHg 59%
02:00 -2°C° 0 mm 3 m/s 754 mmHg 58%
03:00 -2°C° 0 mm 3 m/s 753 mmHg 57%
04:00 -2°C° 0 mm 3 m/s 753 mmHg 56%
05:00 -2°C° 0 mm 3 m/s 753 mmHg 55%
06:00 -2°C° 0 mm 3 m/s 752 mmHg 54%
07:00 -2°C° 0 mm 3 m/s 752 mmHg 53%
08:00 -1°C° 0 mm 4 m/s 752 mmHg 48%
09:00 0°C° 0 mm 4 m/s 752 mmHg 43%
10:00 +3°C° 0 mm 4 m/s 751 mmHg 37%
11:00 +3°C° 0 mm 4 m/s 751 mmHg 37%
12:00 +4°C° 0 mm 4 m/s 750 mmHg 36%
13:00 +5°C° 0 mm 4 m/s 750 mmHg 35%
14:00 +5°C° 0 mm 4 m/s 749 mmHg 37%
15:00 +5°C° 0 mm 3 m/s 749 mmHg 39%
16:00 +5°C° 0 mm 3 m/s 748 mmHg 41%
17:00 +3°C° 0 mm 3 m/s 748 mmHg 47%
18:00 +3°C° 0 mm 2 m/s 748 mmHg 52%
19:00 +2°C° 0 mm 2 m/s 748 mmHg 58%
20:00 +1°C° 0 mm 2 m/s 748 mmHg 60%
21:00 +1°C° 0 mm 2 m/s 748 mmHg 62%
22:00 +1°C° 0 mm 1 m/s 748 mmHg 64%
23:00 +1°C° 0 mm 1 m/s 748 mmHg 64%

8 Martie, Luni

Timp Temperatura Precipitaţii Vânt Presiune Umiditate
00:00 +1°C° 0 mm 1 m/s 747 mmHg 65%
01:00 +1°C° 0 mm 1 m/s 747 mmHg 66%
02:00 +1°C° 0 mm 1 m/s 747 mmHg 66%
03:00 +1°C° 0 mm 1 m/s 746 mmHg 66%
04:00 +1°C° 0 mm 1 m/s 746 mmHg 66%
05:00 +1°C° 0 mm 1 m/s 746 mmHg 66%
06:00 +1°C° 0 mm 1 m/s 746 mmHg 67%
07:00 +1°C° 0 mm 1 m/s 746 mmHg 68%
08:00 +1°C° 0 mm 2 m/s 746 mmHg 70%
09:00 0°C° 0 mm 3 m/s 747 mmHg 72%
10:00 +1°C° 0 mm 3 m/s 747 mmHg 75%
11:00 +1°C° 0.1 mm 3 m/s 747 mmHg 78%
12:00 +1°C° 0.1 mm 3 m/s 747 mmHg 81%
13:00 0°C° 0.1 mm 4 m/s 747 mmHg 85%
14:00 +1°C° 0.1 mm 3 m/s 747 mmHg 87%
15:00 +1°C° 0.1 mm 3 m/s 747 mmHg 89%
16:00 0°C° 0.1 mm 3 m/s 747 mmHg 91%
17:00 0°C° 0 mm 3 m/s 748 mmHg 87%
18:00 -1°C° 0 mm 2 m/s 749 mmHg 82%
19:00 -1°C° 0 mm 2 m/s 749 mmHg 78%
20:00 -1°C° 0 mm 2 m/s 750 mmHg 74%
21:00 -2°C° 0 mm 2 m/s 750 mmHg 70%
22:00 -2°C° 0 mm 2 m/s 751 mmHg 67%
23:00 -2°C° 0 mm 2 m/s 751 mmHg 68%

9 Martie, Marţi

Timp Temperatura Precipitaţii Vânt Presiune Umiditate
00:00 -3°C° 0 mm 2 m/s 751 mmHg 69%
01:00 -3°C° 0 mm 2 m/s 751 mmHg 70%
02:00 -3°C° 0 mm 2 m/s 751 mmHg 71%
03:00 -3°C° 0 mm 2 m/s 751 mmHg 72%
04:00 -3°C° 0 mm 2 m/s 751 mmHg 73%
05:00 -3°C° 0 mm 2 m/s 751 mmHg 73%
06:00 -3°C° 0 mm 2 m/s 752 mmHg 72%
07:00 -3°C° 0 mm 2 m/s 752 mmHg 72%
08:00 -2°C° 0 mm 2 m/s 752 mmHg 66%
09:00 -1°C° 0 mm 2 m/s 752 mmHg 59%
10:00 0°C° 0 mm 3 m/s 752 mmHg 53%
11:00 0°C° 0 mm 3 m/s 752 mmHg 49%
12:00 +1°C° 0 mm 3 m/s 752 mmHg 46%
13:00 +2°C° 0 mm 3 m/s 752 mmHg 42%
14:00 +2°C° 0 mm 3 m/s 751 mmHg 43%
15:00 +2°C° 0 mm 2 m/s 751 mmHg 44%
16:00 +2°C° 0 mm 2 m/s 750 mmHg 44%
17:00 +1°C° 0 mm 2 m/s 751 mmHg 49%
18:00 -1°C° 0 mm 2 m/s 751 mmHg 54%
19:00 -2°C° 0 mm 2 m/s 751 mmHg 59%
20:00 -2°C° 0 mm 2 m/s 751 mmHg 60%
21:00 -2°C° 0 mm 2 m/s 751 mmHg 61%
22:00 -2°C° 0 mm 2 m/s 751 mmHg 62%
23:00 -2°C° 0 mm 2 m/s 751 mmHg 62%
Arată mai mult

Formular de consimțământ

Meteoprog și furnizorii noștri de servicii pot stoca și accesa date personale, precum cookies, identificatori de dispozitiv sau alte tehnologii similare pe dispozitivul dumneavoastră și procesa astfel de date pentru a personaliza conținutul și reclamele, dar și pentru a oferi caracteristici de social media și pentru a analiza traficul.

  • Stocarea și/sau accesarea informațiilor pe dispozitivul dumneavoastră

    Cookies, identificatori de dispozitiv sau alte informații pot fi stocate sau accesate pe dispozitiv în scopurile indicate mai sus.

  • Reclame și conținut personalizat, evaluarea reclamelor și a conținutului, informații despre audiențe și dezvoltarea produselor

    Reclamele și conținutul pot fi personalizate pe baza unui profil. Pot fi adăugate date suplimentare pentru a personaliza mai bine reclamele și conținutul. Performanța reclamelor și conținutului poate fi măsurată. Pot fi obținute informații despre utilizatorii care au văzut reclamele și conținutul. Aceste date pot fi utilizate pentru a dezvolta sau îmbunătăți experiența utilizatorilor, sistemele și software-ul.

Dând clic pe ‘Sunt de acord’, permiteți utilizarea cookie-urilor menționate, a identificatorilor de dispozitiv, balizelor web sau altor tehnologii similare. Setările pot fi modificate din browser-ul dispozitivului dumneavoastră.

În anumite scopuri, interesele legitime pot prima asupra consimțământului. Puteți citi mai multe informații în acest sens în Politica privind Confidențialitatea Datelor și Cookie.